Flag for Canada Weather past 2 weeks in Belleville, Ontario, Canada

Now
61 °F

Scattered clouds.


Feels Like: 61 °F
Forecast: 52 / 69 °F
Wind: 6 mph from Northwest

Location: Trenton

Current Time: Jul 29, 2014 at 9:53:13 AM

Latest Report: Jul 29, 2014 at 9:00 AM


Visibility: 15 mi

Pressure: 29.89 "Hg

Humidity: 77%

Dew point: 54 °F

Location of BellevilleLocation

Historic Weather in Belleville — Graph

°F

Belleville temperature yesterday

Maximum temperature yesterday: 68 °F (at 6:00 PM)
Minimum temperature yesterday: 57 °F (at 10:00 PM)
Average temperature yesterday: 62 °F

Past Weeks' High & Low Weather Summary

 TemperatureHumidityPressure
High81 °F (Jul 22, 1:00 PM)100% (Jul 17, 5:00 AM)30.24 "Hg (Jul 17, 5:00 AM)
Low50 °F (Jul 17, 5:00 AM)41% (Jul 25, 5:00 PM)29.60 "Hg (Jul 28, 2:00 AM)
Average67 °F76%29.94 "Hg
* Reported Jul 14 9:00 AM — Jul 29 9:00 AM, Belleville, Weather by CustomWeather, © 2014

Note: Actual official high and low records may vary slightly from our data, if they occured in-between our weather recording intervals... More about our weather records

Advertising

Belleville weather history for previous 24 hours

 ConditionsComfort  
Time TempWeatherWind HumidityBarometerVisibility
9:00 AM
Jul 29
61 °FScattered clouds.6 mph77%29.89 "Hg15 mi
8:00 AM57 °FPassing clouds.7 mph88%29.88 "Hg15 mi
7:00 AM55 °FScattered clouds.7 mph88%29.87 "Hg15 mi
6:00 AM54 °FPartly cloudy.8 mph94%29.85 "Hg15 mi
5:00 AM54 °FPassing clouds.9 mph94%29.83 "Hg15 mi
4:00 AM55 °FPassing clouds.9 mph88%29.82 "Hg15 mi
3:00 AM57 °FPassing clouds.7 mph88%29.82 "Hg15 mi
2:00 AM57 °FPassing clouds.7 mph82%29.82 "Hg15 mi
1:00 AM57 °FPassing clouds.6 mph82%29.82 "Hg15 mi
12:00 AM57 °FPassing clouds.8 mph77%29.82 "Hg15 mi
11:00 PM
Jul 28
57 °FPassing clouds.6 mph77%29.81 "Hg15 mi
10:00 PM57 °FPassing clouds.6 mph82%29.81 "Hg15 mi
9:00 PM61 °FPartly sunny.9 mph68%29.78 "Hg15 mi
8:00 PM64 °FPartly sunny.13 mph64%29.78 "Hg15 mi
7:00 PM66 °FBroken clouds.13 mph64%29.76 "Hg15 mi
6:00 PM68 °FCloudy.9 mph64%29.74 "Hg15 mi
4:00 PM66 °FMostly cloudy.12 mph78%29.71 "Hg15 mi
3:00 PM63 °FMostly cloudy.13 mph88%29.70 "Hg15 mi
2:47 PMN/AMostly cloudy.15 mphN/AN/A15 mi
2:00 PM61 °FLight rain. Mostly cloudy.15 mph94%29.70 "Hg12 mi
1:00 PM61 °FLight rain. Mostly cloudy.12 mph88%29.69 "Hg7 mi
12:00 PM59 °FLight rain. Mostly cloudy.14 mph94%29.68 "Hg7 mi
11:00 AM59 °FLight rain. Fog.13 mph94%29.67 "Hg3 mi
10:47 AMN/ALight rain.14 mphN/AN/A5 mi
10:00 AM59 °FLight rain. More clouds than sun.16 mph94%29.64 "Hg7 mi
9:00 AM59 °FLight rain. More clouds than sun.14 mph100%29.62 "Hg6 mi
Weather by CustomWeather, © 2014

See weather overviewHow to use our weather pages